カタログに戻る

SL-12 R/B(2)

LostMEO
NORAD 32396·ROCKET BODY·🇷🇺 Russia

打ち上げ Dec 25, 2007 から Baikonur Cosmodrome

Loading…

次のパス (今後24時間)

TLE

古いSource: Space-Track

元期: Aug 3, 2026, 15:32 UTC

1 32396U 07065D   26215.64738365  .00000091  00000-0  00000+0 0  9998
2 32396  64.3269 189.6305 0035982 191.1436 350.7639  2.13392405144998

AllMySatでSL-12 R/B(2)をリアルタイム追跡

Download on the App Store